User: anonymous   Login
Location: Carabito
(9.8355°N, 67.9249°W)
Time: 22:08:39
(UTC+00:00)
Language:

SL-8 R/B - Orbit

View from above orbital plane
View from above orbital plane
View from above satellite
View from above satellite

Ground track
Ground track

The orbit data is extracted from the following two-line orbital elements,

1 33066U 08031G   24206.50296446  .00001181  00000-0  22052-3 0  9995
2 33066  48.4417 207.9173 0007984 290.0571  69.9481 14.71393287864335
Epoch (UTC): 24 July 2024 12:04:16
Eccentricity: 0.0007984
inclination: 48.4417°
perigee height: 651 km
apogee height: 662 km
right ascension of ascending node: 207.9173°
argument of perigee: 290.0571°
revolutions per day: 14.71393287
mean anomaly at epoch: 69.9481°
orbit number at epoch: 86433

The dashed part of the orbit path shows where the satellite is in the earth's shadow,  

DLR